When you browse on this site, cookies collect data to enhance your experience and personalize the content and advertising you see.
Visit our Privacy Policy to learn more. By continuing to use the site, you agree to this use of cookies and data.
  • In Hungary
  • List of Countries
  • For 7 days
  • Water Temperature
  • Weather Map
  • News
  • Weather Widgets
  • user-avatar
    Login

    Hourly Weather Polyarnyy Krug

    Today, 25 August, Sunday

    Time Temperature Precipitation Wind Pressure Humidity
    00:00 +9°C° 0 mm 1 mps 761 mmHg 94%
    01:00 +9°C° 0 mm 1 mps 762 mmHg 94%
    02:00 +9°C° 0 mm 1 mps 762 mmHg 95%
    03:00 +9°C° 0 mm 1 mps 762 mmHg 95%
    04:00 +9°C° 0 mm 1 mps 763 mmHg 96%
    05:00 +9°C° 0 mm 1 mps 763 mmHg 96%
    06:00 +10°C° 0 mm 1 mps 763 mmHg 93%
    07:00 +11°C° 0 mm 1 mps 763 mmHg 91%
    08:00 +11°C° 0 mm 1 mps 763 mmHg 88%
    09:00 +12°C° 0 mm 1 mps 763 mmHg 84%
    10:00 +13°C° 0 mm 1 mps 762 mmHg 79%
    11:00 +14°C° 0 mm 1 mps 762 mmHg 75%
    12:00 +15°C° 0 mm 1 mps 762 mmHg 70%
    13:00 +15°C° 0 mm 1 mps 761 mmHg 66%
    14:00 +16°C° 0 mm 2 mps 761 mmHg 61%
    15:00 +15°C° 0.4 mm 2 mps 760 mmHg 71%
    16:00 +14°C° 0.4 mm 2 mps 760 mmHg 81%
    17:00 +12°C° 0.4 mm 2 mps 759 mmHg 91%
    18:00 +12°C° 1.3 mm 2 mps 759 mmHg 92%
    19:00 +11°C° 1.3 mm 3 mps 758 mmHg 94%
    20:00 +11°C° 1.3 mm 4 mps 757 mmHg 96%
    21:00 +11°C° 1.7 mm 4 mps 756 mmHg 96%
    22:00 +11°C° 1.7 mm 4 mps 755 mmHg 96%
    23:00 +10°C° 1.7 mm 5 mps 754 mmHg 95%

    Tomorrow, 26 August, Monday

    Time Temperature Precipitation Wind Pressure Humidity
    00:00 +11°C° 0.6 mm 4 mps 753 mmHg 96%
    01:00 +11°C° 0.6 mm 4 mps 753 mmHg 96%
    02:00 +12°C° 0.6 mm 4 mps 752 mmHg 96%
    03:00 +12°C° 0.2 mm 4 mps 751 mmHg 95%
    04:00 +12°C° 0.2 mm 4 mps 751 mmHg 95%
    05:00 +11°C° 0.2 mm 4 mps 750 mmHg 95%
    06:00 +12°C° 0 mm 4 mps 750 mmHg 93%
    07:00 +13°C° 0 mm 4 mps 750 mmHg 91%
    08:00 +13°C° 0 mm 5 mps 750 mmHg 89%
    09:00 +13°C° 0 mm 5 mps 750 mmHg 87%
    10:00 +13°C° 0 mm 6 mps 750 mmHg 84%
    11:00 +13°C° 0 mm 6 mps 750 mmHg 82%
    12:00 +13°C° 0.1 mm 6 mps 751 mmHg 82%
    13:00 +13°C° 0.1 mm 6 mps 751 mmHg 83%
    14:00 +13°C° 0.1 mm 6 mps 752 mmHg 84%
    15:00 +13°C° 0 mm 6 mps 752 mmHg 79%
    16:00 +14°C° 0 mm 6 mps 753 mmHg 75%
    17:00 +15°C° 0 mm 6 mps 753 mmHg 71%
    18:00 +14°C° 0 mm 5 mps 754 mmHg 75%
    19:00 +13°C° 0 mm 5 mps 754 mmHg 79%
    20:00 +12°C° 0 mm 4 mps 755 mmHg 83%
    21:00 +11°C° 0 mm 4 mps 756 mmHg 84%
    22:00 +9°C° 0 mm 5 mps 756 mmHg 84%
    23:00 +9°C° 0 mm 5 mps 757 mmHg 85%

    Day after tomorrow, 27 August, Tuesday

    Time Temperature Precipitation Wind Pressure Humidity
    00:00 +8°C° 0 mm 4 mps 758 mmHg 87%
    01:00 +7°C° 0 mm 4 mps 758 mmHg 89%
    02:00 +6°C° 0 mm 4 mps 759 mmHg 92%
    03:00 +7°C° 0 mm 3 mps 760 mmHg 92%
    04:00 +7°C° 0 mm 3 mps 760 mmHg 93%
    05:00 +7°C° 0 mm 2 mps 761 mmHg 93%
    06:00 +7°C° 0 mm 2 mps 761 mmHg 87%
    07:00 +8°C° 0 mm 2 mps 762 mmHg 80%
    08:00 +9°C° 0 mm 2 mps 762 mmHg 74%
    09:00 +10°C° 0 mm 2 mps 763 mmHg 71%
    10:00 +10°C° 0 mm 2 mps 763 mmHg 67%
    11:00 +10°C° 0 mm 2 mps 763 mmHg 64%
    12:00 +12°C° 0 mm 1 mps 764 mmHg 61%
    13:00 +12°C° 0 mm 1 mps 764 mmHg 59%
    14:00 +13°C° 0 mm 1 mps 764 mmHg 57%
    15:00 +12°C° 0 mm 1 mps 764 mmHg 58%
    16:00 +12°C° 0 mm 2 mps 764 mmHg 59%
    17:00 +12°C° 0 mm 2 mps 764 mmHg 61%
    18:00 +10°C° 0 mm 2 mps 764 mmHg 63%
    19:00 +9°C° 0 mm 3 mps 764 mmHg 66%
    20:00 +9°C° 0 mm 3 mps 764 mmHg 68%
    21:00 +8°C° 0.1 mm 3 mps 765 mmHg 70%
    22:00 +7°C° 0.1 mm 4 mps 765 mmHg 71%
    23:00 +7°C° 0.1 mm 4 mps 765 mmHg 73%

    28 August, Wednesday

    Time Temperature Precipitation Wind Pressure Humidity
    00:00 +6°C° 0.2 mm 4 mps 765 mmHg 76%
    01:00 +6°C° 0.2 mm 4 mps 764 mmHg 80%
    02:00 +6°C° 0.2 mm 4 mps 764 mmHg 83%
    03:00 +6°C° 0.2 mm 4 mps 764 mmHg 84%
    04:00 +7°C° 0.2 mm 3 mps 764 mmHg 85%
    05:00 +7°C° 0.2 mm 3 mps 764 mmHg 86%
    06:00 +8°C° 0.1 mm 3 mps 763 mmHg 85%
    07:00 +8°C° 0.1 mm 3 mps 763 mmHg 84%
    08:00 +9°C° 0.1 mm 3 mps 763 mmHg 82%
    09:00 +10°C° 0 mm 3 mps 763 mmHg 81%
    10:00 +12°C° 0 mm 2 mps 763 mmHg 79%
    11:00 +13°C° 0 mm 2 mps 762 mmHg 77%
    12:00 +14°C° 0 mm 2 mps 762 mmHg 74%
    13:00 +15°C° 0 mm 2 mps 762 mmHg 71%
    14:00 +17°C° 0 mm 2 mps 761 mmHg 68%
    15:00 +17°C° 0 mm 2 mps 761 mmHg 70%
    16:00 +17°C° 0 mm 3 mps 761 mmHg 72%
    17:00 +17°C° 0 mm 3 mps 761 mmHg 73%
    18:00 +14°C° 0 mm 3 mps 761 mmHg 80%
    19:00 +13°C° 0 mm 3 mps 761 mmHg 86%
    20:00 +11°C° 0 mm 3 mps 761 mmHg 93%
    21:00 +11°C° 0 mm 3 mps 761 mmHg 94%
    22:00 +12°C° 0 mm 2 mps 761 mmHg 95%
    23:00 +10°C° 0 mm 2 mps 761 mmHg 95%

    29 August, Thursday

    Time Temperature Precipitation Wind Pressure Humidity
    00:00 +10°C° 0 mm 2 mps 761 mmHg 96%
    01:00 +10°C° 0 mm 2 mps 761 mmHg 96%
    02:00 +11°C° 0 mm 1 mps 761 mmHg 96%
    03:00 +11°C° 0 mm 1 mps 761 mmHg 96%
    04:00 +11°C° 0 mm 1 mps 761 mmHg 96%
    05:00 +11°C° 0 mm 1 mps 761 mmHg 97%
    06:00 +12°C° 0 mm 1 mps 761 mmHg 94%
    07:00 +13°C° 0 mm 1 mps 761 mmHg 92%
    08:00 +14°C° 0 mm 1 mps 761 mmHg 90%
    09:00 +15°C° 0 mm 2 mps 760 mmHg 87%
    10:00 +16°C° 0 mm 2 mps 760 mmHg 84%
    11:00 +17°C° 0 mm 3 mps 760 mmHg 80%
    12:00 +18°C° 0 mm 3 mps 760 mmHg 79%
    13:00 +18°C° 0 mm 3 mps 760 mmHg 77%
    14:00 +19°C° 0 mm 3 mps 760 mmHg 76%
    15:00 +19°C° 0.1 mm 3 mps 759 mmHg 77%
    16:00 +19°C° 0.1 mm 3 mps 759 mmHg 79%
    17:00 +20°C° 0.1 mm 3 mps 759 mmHg 80%
    18:00 +18°C° 0.1 mm 3 mps 759 mmHg 85%
    19:00 +17°C° 0.1 mm 3 mps 759 mmHg 89%
    20:00 +16°C° 0.1 mm 3 mps 759 mmHg 93%
    21:00 +16°C° 0 mm 3 mps 759 mmHg 94%
    22:00 +16°C° 0 mm 3 mps 759 mmHg 95%
    23:00 +15°C° 0 mm 2 mps 759 mmHg 95%

    30 August, Friday

    Time Temperature Precipitation Wind Pressure Humidity
    00:00 +15°C° 0 mm 2 mps 758 mmHg 95%
    01:00 +15°C° 0 mm 2 mps 758 mmHg 96%
    02:00 +14°C° 0 mm 2 mps 758 mmHg 96%
    03:00 +14°C° 0 mm 2 mps 758 mmHg 96%
    04:00 +14°C° 0 mm 2 mps 758 mmHg 96%
    05:00 +14°C° 0 mm 2 mps 757 mmHg 96%
    06:00 +15°C° 0 mm 2 mps 757 mmHg 92%
    07:00 +16°C° 0 mm 2 mps 757 mmHg 89%
    08:00 +17°C° 0 mm 2 mps 757 mmHg 85%
    09:00 +19°C° 0 mm 3 mps 757 mmHg 77%
    10:00 +20°C° 0 mm 3 mps 756 mmHg 69%
    11:00 +21°C° 0 mm 4 mps 756 mmHg 62%
    12:00 +21°C° 0 mm 4 mps 756 mmHg 59%
    13:00 +22°C° 0 mm 4 mps 755 mmHg 57%
    14:00 +22°C° 0 mm 4 mps 755 mmHg 55%
    15:00 +22°C° 0 mm 4 mps 755 mmHg 57%
    16:00 +21°C° 0 mm 3 mps 755 mmHg 59%
    17:00 +21°C° 0 mm 3 mps 754 mmHg 61%
    18:00 +20°C° 0 mm 3 mps 754 mmHg 65%
    19:00 +18°C° 0 mm 3 mps 754 mmHg 69%
    20:00 +17°C° 0 mm 3 mps 754 mmHg 73%
    21:00 +17°C° 0.1 mm 3 mps 753 mmHg 74%
    22:00 +16°C° 0.1 mm 3 mps 753 mmHg 76%
    23:00 +15°C° 0.1 mm 4 mps 753 mmHg 78%
    Show more